When you browse on this site, cookies collect data to enhance your experience and personalize the content and advertising you see.
Visit our Privacy Policy to learn more. By continuing to use the site, you agree to this use of cookies and data.
  • In Latvia
  • List of Countries
  • For 7 days
  • Water Temperature
  • Weather Map
  • Weather Widgets
  • user-avatar
    Login

    Hourly Weather Tarin Kowt

    Today, 17 January, Friday

    Time Temperature Precipitation Wind Pressure Humidity
    00:00 -3°C° 0 mm 0 mps 617 mmHg 58%
    01:00 -2°C° 0 mm 1 mps 617 mmHg 58%
    02:00 -3°C° 0 mm 1 mps 617 mmHg 57%
    03:00 -3°C° 0 mm 1 mps 617 mmHg 57%
    04:00 -3°C° 0 mm 1 mps 617 mmHg 57%
    05:00 -3°C° 0 mm 1 mps 617 mmHg 57%
    06:00 -3°C° 0 mm 1 mps 617 mmHg 56%
    07:00 -4°C° 0 mm 1 mps 617 mmHg 56%
    08:00 -3°C° 0 mm 1 mps 617 mmHg 51%
    09:00 -2°C° 0 mm 1 mps 617 mmHg 47%
    10:00 -3°C° 0 mm 2 mps 618 mmHg 44%
    11:00 -3°C° 0 mm 2 mps 617 mmHg 42%
    12:00 0°C° 0 mm 1 mps 617 mmHg 41%
    13:00 0°C° 0 mm 1 mps 616 mmHg 39%
    14:00 0°C° 0 mm 1 mps 616 mmHg 42%
    15:00 0°C° 0 mm 1 mps 616 mmHg 45%
    16:00 0°C° 0 mm 1 mps 616 mmHg 48%
    17:00 -1°C° 0 mm 1 mps 616 mmHg 52%
    18:00 -2°C° 0 mm 0 mps 616 mmHg 55%
    19:00 -3°C° 0 mm 0 mps 616 mmHg 59%
    20:00 -3°C° 0 mm 0 mps 616 mmHg 58%
    21:00 -3°C° 0 mm 0 mps 616 mmHg 58%
    22:00 -3°C° 0 mm 0 mps 616 mmHg 58%
    23:00 -4°C° 0 mm 0 mps 617 mmHg 58%

    Tomorrow, 18 January, Saturday

    Time Temperature Precipitation Wind Pressure Humidity
    00:00 -3°C° 0 mm 1 mps 617 mmHg 58%
    01:00 -3°C° 0 mm 1 mps 617 mmHg 57%
    02:00 -3°C° 0 mm 1 mps 617 mmHg 56%
    03:00 -3°C° 0 mm 1 mps 617 mmHg 55%
    04:00 -3°C° 0 mm 1 mps 617 mmHg 53%
    05:00 -3°C° 0 mm 1 mps 617 mmHg 52%
    06:00 -6°C° 0 mm 2 mps 617 mmHg 51%
    07:00 -6°C° 0 mm 2 mps 618 mmHg 50%
    08:00 -5°C° 0 mm 2 mps 618 mmHg 46%
    09:00 -4°C° 0 mm 2 mps 618 mmHg 41%
    10:00 -1°C° 0 mm 1 mps 618 mmHg 37%
    11:00 -1°C° 0 mm 1 mps 618 mmHg 36%
    12:00 0°C° 0 mm 1 mps 617 mmHg 35%
    13:00 +1°C° 0 mm 1 mps 617 mmHg 33%
    14:00 +1°C° 0 mm 1 mps 617 mmHg 36%
    15:00 +1°C° 0 mm 1 mps 616 mmHg 39%
    16:00 -1°C° 0 mm 2 mps 616 mmHg 42%
    17:00 -2°C° 0 mm 2 mps 616 mmHg 44%
    18:00 -1°C° 0 mm 1 mps 616 mmHg 46%
    19:00 -2°C° 0 mm 1 mps 617 mmHg 48%
    20:00 -4°C° 0 mm 2 mps 617 mmHg 47%
    21:00 -4°C° 0 mm 2 mps 617 mmHg 46%
    22:00 -4°C° 0 mm 2 mps 617 mmHg 45%
    23:00 -4°C° 0 mm 2 mps 617 mmHg 45%

    Day after tomorrow, 19 January, Sunday

    Time Temperature Precipitation Wind Pressure Humidity
    00:00 -3°C° 0 mm 2 mps 617 mmHg 45%
    01:00 -3°C° 0 mm 2 mps 616 mmHg 45%
    02:00 -3°C° 0 mm 2 mps 616 mmHg 45%
    03:00 -4°C° 0 mm 2 mps 615 mmHg 46%
    04:00 -4°C° 0 mm 2 mps 615 mmHg 46%
    05:00 -3°C° 0 mm 2 mps 615 mmHg 44%
    06:00 -3°C° 0 mm 2 mps 615 mmHg 43%
    07:00 -3°C° 0 mm 2 mps 615 mmHg 41%
    08:00 -2°C° 0 mm 2 mps 615 mmHg 38%
    09:00 -1°C° 0 mm 2 mps 616 mmHg 34%
    10:00 +1°C° 0 mm 2 mps 616 mmHg 30%
    11:00 +2°C° 0 mm 2 mps 616 mmHg 30%
    12:00 +3°C° 0 mm 2 mps 615 mmHg 30%
    13:00 +4°C° 0 mm 2 mps 615 mmHg 30%
    14:00 +4°C° 0 mm 2 mps 614 mmHg 35%
    15:00 +3°C° 0 mm 2 mps 614 mmHg 40%
    16:00 +3°C° 0 mm 2 mps 614 mmHg 45%
    17:00 +2°C° 0.1 mm 2 mps 614 mmHg 55%
    18:00 +1°C° 0.1 mm 2 mps 614 mmHg 65%
    19:00 -1°C° 0.1 mm 2 mps 614 mmHg 74%
    20:00 -1°C° 0.4 mm 2 mps 614 mmHg 80%
    21:00 -1°C° 0.4 mm 2 mps 615 mmHg 85%
    22:00 -2°C° 0.4 mm 2 mps 615 mmHg 91%
    23:00 -2°C° 0.1 mm 2 mps 615 mmHg 90%

    20 January, Monday

    Time Temperature Precipitation Wind Pressure Humidity
    00:00 0°C° 0.1 mm 1 mps 614 mmHg 89%
    01:00 0°C° 0.1 mm 1 mps 614 mmHg 89%
    02:00 0°C° 0 mm 1 mps 614 mmHg 88%
    03:00 0°C° 0 mm 1 mps 614 mmHg 88%
    04:00 -2°C° 0 mm 2 mps 614 mmHg 88%
    05:00 -2°C° 0 mm 2 mps 614 mmHg 87%
    06:00 0°C° 0 mm 1 mps 614 mmHg 86%
    07:00 0°C° 0 mm 1 mps 614 mmHg 85%
    08:00 0°C° 0 mm 1 mps 614 mmHg 82%
    09:00 +1°C° 0 mm 1 mps 614 mmHg 79%
    10:00 +2°C° 0 mm 1 mps 615 mmHg 75%
    11:00 +2°C° 0 mm 1 mps 614 mmHg 74%
    12:00 +3°C° 0 mm 1 mps 614 mmHg 72%
    13:00 +4°C° 0 mm 1 mps 614 mmHg 70%
    14:00 +4°C° 0 mm 1 mps 613 mmHg 70%
    15:00 +4°C° 0 mm 1 mps 613 mmHg 71%
    16:00 +4°C° 0 mm 1 mps 613 mmHg 71%
    17:00 +3°C° 0 mm 1 mps 614 mmHg 73%
    18:00 +3°C° 0 mm 1 mps 614 mmHg 75%
    19:00 +3°C° 0 mm 1 mps 614 mmHg 77%
    20:00 +2°C° 0 mm 1 mps 614 mmHg 79%
    21:00 +1°C° 0 mm 0 mps 615 mmHg 81%
    22:00 0°C° 0 mm 0 mps 615 mmHg 83%
    23:00 0°C° 0 mm 0 mps 614 mmHg 84%

    21 January, Tuesday

    Time Temperature Precipitation Wind Pressure Humidity
    00:00 0°C° 0 mm 0 mps 614 mmHg 85%
    01:00 0°C° 0 mm 0 mps 614 mmHg 85%
    02:00 -1°C° 0 mm 0 mps 614 mmHg 88%
    03:00 -1°C° 0 mm 0 mps 614 mmHg 90%
    04:00 0°C° 0 mm 1 mps 614 mmHg 92%
    05:00 0°C° 0.2 mm 1 mps 614 mmHg 94%
    06:00 0°C° 0.2 mm 1 mps 615 mmHg 95%
    07:00 0°C° 0.2 mm 1 mps 615 mmHg 96%
    08:00 0°C° 0.3 mm 1 mps 615 mmHg 96%
    09:00 0°C° 0.3 mm 1 mps 616 mmHg 96%
    10:00 +1°C° 0.3 mm 1 mps 616 mmHg 96%
    11:00 +1°C° 0.3 mm 1 mps 615 mmHg 95%
    12:00 +1°C° 0.3 mm 1 mps 615 mmHg 95%
    13:00 +1°C° 0.3 mm 1 mps 615 mmHg 95%
    14:00 +1°C° 0.1 mm 1 mps 615 mmHg 93%
    15:00 +1°C° 0.1 mm 1 mps 615 mmHg 91%
    16:00 0°C° 0.1 mm 0 mps 615 mmHg 90%
    17:00 0°C° 0 mm 0 mps 616 mmHg 90%
    18:00 0°C° 0 mm 0 mps 616 mmHg 91%
    19:00 -1°C° 0 mm 0 mps 617 mmHg 92%
    20:00 0°C° 0 mm 1 mps 617 mmHg 91%
    21:00 0°C° 0 mm 1 mps 617 mmHg 90%
    22:00 0°C° 0 mm 1 mps 618 mmHg 89%
    23:00 0°C° 0 mm 1 mps 618 mmHg 89%

    22 January, Wednesday

    Time Temperature Precipitation Wind Pressure Humidity
    00:00 -1°C° 0 mm 1 mps 618 mmHg 88%
    01:00 -3°C° 0 mm 2 mps 618 mmHg 88%
    02:00 -3°C° 0 mm 2 mps 618 mmHg 87%
    03:00 -3°C° 0 mm 2 mps 618 mmHg 87%
    04:00 -3°C° 0 mm 2 mps 618 mmHg 86%
    05:00 -3°C° 0 mm 2 mps 618 mmHg 86%
    06:00 -3°C° 0 mm 2 mps 619 mmHg 85%
    07:00 -4°C° 0 mm 2 mps 619 mmHg 84%
    08:00 -3°C° 0 mm 2 mps 619 mmHg 79%
    09:00 -2°C° 0 mm 2 mps 620 mmHg 73%
    10:00 -1°C° 0 mm 2 mps 620 mmHg 67%
    11:00 +1°C° 0 mm 2 mps 620 mmHg 64%
    12:00 +1°C° 0 mm 2 mps 619 mmHg 60%
    13:00 +2°C° 0 mm 2 mps 619 mmHg 57%
    14:00 +2°C° 0 mm 2 mps 618 mmHg 57%
    15:00 +2°C° 0 mm 2 mps 618 mmHg 56%
    16:00 +3°C° 0 mm 1 mps 618 mmHg 56%
    17:00 +2°C° 0 mm 1 mps 618 mmHg 60%
    18:00 +1°C° 0 mm 1 mps 619 mmHg 63%
    19:00 0°C° 0 mm 1 mps 619 mmHg 66%
    20:00 0°C° 0 mm 1 mps 619 mmHg 66%
    21:00 -2°C° 0 mm 2 mps 619 mmHg 66%
    22:00 -2°C° 0 mm 2 mps 620 mmHg 65%
    23:00 -2°C° 0 mm 2 mps 619 mmHg 65%
    Show more